Regional Weather Roundup
Issued by NWS

Home | Current Version | Previous Version | Graphics & Text | Print | Product List | Glossary On
Versions: 1 2 3 4 5 6 7 8 9 10 11 12 13 14 15 16 17 18 19 20 21 22 23 24 25 26 27 28 29 30 31 32 33 34 35 36 37 38 39 40 41 42 43 44 45 46 47 48 49 50
000
ASUS43 KFSD 171402
RWRSD

WEATHER ROUNDUP FOR SOUTH DAKOTA
NATIONAL WEATHER SERVICE SIOUX FALLS SD
900 AM CDT THU APR 17 2014

NOTE: "FAIR" INDICATES FEW OR NO CLOUDS BELOW 12,000 FEET WITH NO
SIGNIFICANT WEATHER AND/OR OBSTRUCTIONS TO VISIBILITY.


SDZ001>005-009-010-012>017-171500-
NORTHWEST AND NORTH CENTRAL SOUTH DAKOTA

CITY           SKY/WX    TMP DP  RH WIND       PRES   REMARKS
FAITH            N/A     30  22  72 SE14      30.21R WCI  19
MOBRIDGE       SUNNY     27  15  61 E9        30.28R WCI  18
$$

SDZ012>016-024>037-041>051-057-063-072>074-171500-
SOUTHWEST AND SOUTH CENTRAL SOUTH DAKOTA

CITY           SKY/WX    TMP DP  RH WIND       PRES   REMARKS
RAPID CTY ARPT CLOUDY    31  27  85 SE17      30.14F WCI  19
PIERRE         CLOUDY    29  23  78 E6        30.29S WCI  23
CUSTER         CLOUDY    28  26  92 SW6       30.07S FOG     WCI  22
ELLSWORTH AFB  CLOUDY    32  27  83 S14       30.13F WCI  22
PHILIP         PTSUNNY   32  23  69 SE13      30.24F WCI  22
PINE RIDGE     CLOUDY    33  28  81 SE8       30.17S WCI  26
WINNER         FAIR      30  24  78 CALM      30.30R
$$

SDZ004>011-016>023-039-040-171500-
NORTHEAST SOUTH DAKOTA

CITY           SKY/WX    TMP DP  RH WIND       PRES   REMARKS
ABERDEEN       SUNNY     25  20  81 NE8       30.34S WCI  16
WATERTOWN      SUNNY     23  17  78 N9        30.29R WCI  13
SISSETON         N/A     27  19  72 NW13      30.33R WCI  16
$$

SDZ017-020-022-023-036>040-048>070-171500-
SOUTHEAST SOUTH DAKOTA

CITY           SKY/WX    TMP DP  RH WIND       PRES   REMARKS
SIOUX FALLS    SUNNY     27  21  78 N12       30.31R WCI  17
HURON          SUNNY     26  20  77 N7        30.33F WCI  18
CHAMBERLAIN      N/A     29  24  82 CALM      30.31S
MITCHELL       SUNNY     30  22  72 N6        30.34S WCI  24
YANKTON        SUNNY     28  23  80 N10       30.34R WCI  19
$$

ABBREVIATIONS USED IN REMARKS
   TC - TEMPERATURE IN CELSIUS
  WCI - WIND CHILL INDEX
   HX - HEAT INDEX
  VSB - VISIBILITY




USA.gov is the U.S. government's official web portal to all federal, state and local government web resources and services.